﻿測定場所 (Monitoring sites),日付 (Measurement date),時間 (Measurement time),線量率 最大値 (max) μGy/h,線量率 最小値 (min) μGy/h,線量率 平均値 (average) μGy/h,
小平 (Kodaira),2012-03-11,23:01～24:00,0.0441,0.0367,0.0404,
小平 (Kodaira),2012-03-11,22:01～23:00,0.0431,0.0368,0.0399,
小平 (Kodaira),2012-03-11,21:01～22:00,0.0429,0.0361,0.0398,
小平 (Kodaira),2012-03-11,20:01～21:00,0.0439,0.0367,0.0398,
小平 (Kodaira),2012-03-11,19:01～20:00,0.0426,0.0370,0.0399,
小平 (Kodaira),2012-03-11,18:01～19:00,0.0434,0.0370,0.0408,
小平 (Kodaira),2012-03-11,17:01～18:00,0.0445,0.0378,0.0410,
小平 (Kodaira),2012-03-11,16:01～17:00,0.0426,0.0365,0.0397,
小平 (Kodaira),2012-03-11,15:01～16:00,0.0429,0.0363,0.0399,
小平 (Kodaira),2012-03-11,14:01～15:00,0.0415,0.0366,0.0394,
小平 (Kodaira),2012-03-11,13:01～14:00,0.0425,0.0369,0.0398,
小平 (Kodaira),2012-03-11,12:01～13:00,0.0431,0.0363,0.0398,
小平 (Kodaira),2012-03-11,11:01～12:00,0.0426,0.0370,0.0401,
小平 (Kodaira),2012-03-11,10:01～11:00,0.0436,0.0368,0.0398,
小平 (Kodaira),2012-03-11,09:01～10:00,0.0424,0.0368,0.0393,
小平 (Kodaira),2012-03-11,08:01～09:00,0.0451,0.0361,0.0398,
小平 (Kodaira),2012-03-11,07:01～08:00,0.0438,0.0376,0.0402,
小平 (Kodaira),2012-03-11,06:01～07:00,0.0426,0.0368,0.0400,
小平 (Kodaira),2012-03-11,05:01～06:00,0.0431,0.0364,0.0398,
小平 (Kodaira),2012-03-11,04:01～05:00,0.0430,0.0365,0.0399,
小平 (Kodaira),2012-03-11,03:01～04:00,0.0434,0.0362,0.0396,
小平 (Kodaira),2012-03-11,02:01～03:00,0.0417,0.0361,0.0393,
小平 (Kodaira),2012-03-11,01:01～02:00,0.0425,0.0362,0.0391,
小平 (Kodaira),2012-03-11,00:01～01:00,0.0444,0.0368,0.0398,
小平 (Kodaira),2012-03-10,23:01～24:00,0.0424,0.0368,0.0396,
小平 (Kodaira),2012-03-10,22:01～23:00,0.0423,0.0367,0.0395,
小平 (Kodaira),2012-03-10,21:01～22:00,0.0425,0.0370,0.0394,
小平 (Kodaira),2012-03-10,20:01～21:00,0.0423,0.0367,0.0392,
小平 (Kodaira),2012-03-10,19:01～20:00,0.0435,0.0358,0.0391,
小平 (Kodaira),2012-03-10,18:01～19:00,0.0424,0.0354,0.0391,
小平 (Kodaira),2012-03-10,17:01～18:00,0.0418,0.0355,0.0393,
小平 (Kodaira),2012-03-10,16:01～17:00,0.0435,0.0370,0.0396,
小平 (Kodaira),2012-03-10,15:01～16:00,0.0429,0.0369,0.0401,
小平 (Kodaira),2012-03-10,14:01～15:00,0.0436,0.0376,0.0406,
小平 (Kodaira),2012-03-10,13:01～14:00,0.0451,0.0371,0.0418,
小平 (Kodaira),2012-03-10,12:01～13:00,0.0492,0.0414,0.0454,
小平 (Kodaira),2012-03-10,11:01～12:00,0.0502,0.0432,0.0465,
小平 (Kodaira),2012-03-10,10:01～11:00,0.0515,0.0439,0.0479,
小平 (Kodaira),2012-03-10,09:01～10:00,0.0566,0.0476,0.0519,
小平 (Kodaira),2012-03-10,08:01～09:00,0.0535,0.0446,0.0499,
小平 (Kodaira),2012-03-10,07:01～08:00,0.0546,0.0465,0.0510,
小平 (Kodaira),2012-03-10,06:01～07:00,0.0544,0.0458,0.0507,
小平 (Kodaira),2012-03-10,05:01～06:00,0.0535,0.0472,0.0503,
小平 (Kodaira),2012-03-10,04:01～05:00,0.0527,0.0464,0.0498,
小平 (Kodaira),2012-03-10,03:01～04:00,0.0551,0.0462,0.0503,
小平 (Kodaira),2012-03-10,02:01～03:00,0.0544,0.0459,0.0505,
小平 (Kodaira),2012-03-10,01:01～02:00,0.0527,0.0456,0.0492,
小平 (Kodaira),2012-03-10,00:01～01:00,0.0519,0.0440,0.0477,
小平 (Kodaira),2012-03-09,23:01～24:00,0.0514,0.0429,0.0463,
小平 (Kodaira),2012-03-09,22:01～23:00,0.0522,0.0447,0.0481,
小平 (Kodaira),2012-03-09,21:01～22:00,0.0519,0.0446,0.0488,
小平 (Kodaira),2012-03-09,20:01～21:00,0.0526,0.0450,0.0487,
小平 (Kodaira),2012-03-09,19:01～20:00,0.0539,0.0467,0.0496,
小平 (Kodaira),2012-03-09,18:01～19:00,0.0543,0.0459,0.0508,
小平 (Kodaira),2012-03-09,17:01～18:00,0.0582,0.0500,0.0536,
小平 (Kodaira),2012-03-09,16:01～17:00,0.0575,0.0492,0.0539,
小平 (Kodaira),2012-03-09,15:01～16:00,0.0584,0.0508,0.0545,
小平 (Kodaira),2012-03-09,14:01～15:00,0.0582,0.0499,0.0537,
小平 (Kodaira),2012-03-09,13:01～14:00,0.0564,0.0491,0.0531,
小平 (Kodaira),2012-03-09,12:01～13:00,0.0553,0.0487,0.0522,
小平 (Kodaira),2012-03-09,11:01～12:00,0.0545,0.0466,0.0502,
小平 (Kodaira),2012-03-09,10:01～11:00,0.0540,0.0456,0.0495,
小平 (Kodaira),2012-03-09,09:01～10:00,0.0530,0.0463,0.0499,
小平 (Kodaira),2012-03-09,08:01～09:00,0.0541,0.0464,0.0503,
小平 (Kodaira),2012-03-09,07:01～08:00,0.0541,0.0458,0.0494,
小平 (Kodaira),2012-03-09,06:01～07:00,0.0517,0.0441,0.0483,
小平 (Kodaira),2012-03-09,05:01～06:00,0.0552,0.0471,0.0512,
小平 (Kodaira),2012-03-09,04:01～05:00,0.0557,0.0472,0.0505,
小平 (Kodaira),2012-03-09,03:01～04:00,0.0533,0.0428,0.0489,
小平 (Kodaira),2012-03-09,02:01～03:00,0.0472,0.0391,0.0433,
小平 (Kodaira),2012-03-09,01:01～02:00,0.0440,0.0373,0.0411,
小平 (Kodaira),2012-03-09,00:01～01:00,0.0448,0.0390,0.0410,
小平 (Kodaira),2012-03-08,23:01～24:00,0.0439,0.0374,0.0409,
小平 (Kodaira),2012-03-08,22:01～23:00,0.0455,0.0375,0.0409,
小平 (Kodaira),2012-03-08,21:01～22:00,0.0440,0.0371,0.0405,
小平 (Kodaira),2012-03-08,20:01～21:00,0.0431,0.0370,0.0405,
小平 (Kodaira),2012-03-08,19:01～20:00,0.0436,0.0374,0.0405,
小平 (Kodaira),2012-03-08,18:01～19:00,0.0435,0.0370,0.0404,
小平 (Kodaira),2012-03-08,17:01～18:00,0.0447,0.0378,0.0406,
小平 (Kodaira),2012-03-08,16:01～17:00,0.0441,0.0368,0.0396,
小平 (Kodaira),2012-03-08,15:01～16:00,0.0437,0.0367,0.0407,
小平 (Kodaira),2012-03-08,14:01～15:00,0.0429,0.0368,0.0402,
小平 (Kodaira),2012-03-08,13:01～14:00,0.0441,0.0371,0.0403,
小平 (Kodaira),2012-03-08,12:01～13:00,0.0431,0.0361,0.0403,
小平 (Kodaira),2012-03-08,11:01～12:00,0.0426,0.0365,0.0399,
小平 (Kodaira),2012-03-08,10:01～11:00,0.0438,0.0366,0.0398,
小平 (Kodaira),2012-03-08,09:01～10:00,0.0430,0.0372,0.0403,
小平 (Kodaira),2012-03-08,08:01～09:00,0.0438,0.0372,0.0402,
小平 (Kodaira),2012-03-08,07:01～08:00,0.0426,0.0371,0.0400,
小平 (Kodaira),2012-03-08,06:01～07:00,0.0445,0.0375,0.0404,
小平 (Kodaira),2012-03-08,05:01～06:00,0.0440,0.0362,0.0402,
小平 (Kodaira),2012-03-08,04:01～05:00,0.0436,0.0369,0.0404,
小平 (Kodaira),2012-03-08,03:01～04:00,0.0438,0.0386,0.0404,
小平 (Kodaira),2012-03-08,02:01～03:00,0.0434,0.0371,0.0404,
小平 (Kodaira),2012-03-08,01:01～02:00,0.0437,0.0379,0.0402,
小平 (Kodaira),2012-03-08,00:01～01:00,0.0442,0.0376,0.0405,
小平 (Kodaira),2012-03-07,23:01～24:00,0.0433,0.0382,0.0404,
小平 (Kodaira),2012-03-07,22:01～23:00,0.0434,0.0374,0.0405,
小平 (Kodaira),2012-03-07,21:01～22:00,0.0444,0.0366,0.0404,
小平 (Kodaira),2012-03-07,20:01～21:00,0.0433,0.0388,0.0408,
小平 (Kodaira),2012-03-07,19:01～20:00,0.0428,0.0376,0.0405,
小平 (Kodaira),2012-03-07,18:01～19:00,0.0431,0.0371,0.0406,
小平 (Kodaira),2012-03-07,17:01～18:00,0.0436,0.0371,0.0408,
小平 (Kodaira),2012-03-07,16:01～17:00,0.0437,0.0371,0.0407,
小平 (Kodaira),2012-03-07,15:01～16:00,0.0443,0.0366,0.0405,
小平 (Kodaira),2012-03-07,14:01～15:00,0.0445,0.0371,0.0405,
小平 (Kodaira),2012-03-07,13:01～14:00,0.0446,0.0379,0.0409,
小平 (Kodaira),2012-03-07,12:01～13:00,0.0441,0.0379,0.0410,
小平 (Kodaira),2012-03-07,11:01～12:00,0.0434,0.0377,0.0407,
小平 (Kodaira),2012-03-07,10:01～11:00,0.0439,0.0377,0.0406,
小平 (Kodaira),2012-03-07,09:01～10:00,0.0453,0.0382,0.0408,
小平 (Kodaira),2012-03-07,08:01～09:00,0.0442,0.0370,0.0408,
小平 (Kodaira),2012-03-07,07:01～08:00,0.0442,0.0359,0.0405,
小平 (Kodaira),2012-03-07,06:01～07:00,0.0444,0.0379,0.0407,
小平 (Kodaira),2012-03-07,05:01～06:00,0.0435,0.0374,0.0401,
小平 (Kodaira),2012-03-07,04:01～05:00,0.0438,0.0372,0.0402,
小平 (Kodaira),2012-03-07,03:01～04:00,0.0431,0.0370,0.0401,
小平 (Kodaira),2012-03-07,02:01～03:00,0.0426,0.0365,0.0400,
小平 (Kodaira),2012-03-07,01:01～02:00,0.0439,0.0370,0.0402,
小平 (Kodaira),2012-03-07,00:01～01:00,0.0434,0.0371,0.0400,
小平 (Kodaira),2012-03-06,23:01～24:00,0.0427,0.0375,0.0403,
小平 (Kodaira),2012-03-06,22:01～23:00,0.0427,0.0371,0.0402,
小平 (Kodaira),2012-03-06,21:01～22:00,0.0425,0.0368,0.0399,
小平 (Kodaira),2012-03-06,20:01～21:00,0.0424,0.0374,0.0400,
小平 (Kodaira),2012-03-06,19:01～20:00,0.0435,0.0364,0.0401,
小平 (Kodaira),2012-03-06,18:01～19:00,0.0439,0.0370,0.0401,
小平 (Kodaira),2012-03-06,17:01～18:00,0.0433,0.0376,0.0403,
小平 (Kodaira),2012-03-06,16:01～17:00,0.0437,0.0366,0.0404,
小平 (Kodaira),2012-03-06,15:01～16:00,0.0438,0.0374,0.0402,
小平 (Kodaira),2012-03-06,14:01～15:00,0.0448,0.0371,0.0402,
小平 (Kodaira),2012-03-06,13:01～14:00,0.0435,0.0370,0.0403,
小平 (Kodaira),2012-03-06,12:01～13:00,0.0436,0.0373,0.0409,
小平 (Kodaira),2012-03-06,11:01～12:00,0.0446,0.0381,0.0408,
小平 (Kodaira),2012-03-06,10:01～11:00,0.0443,0.0374,0.0409,
小平 (Kodaira),2012-03-06,09:01～10:00,0.0481,0.0395,0.0427,
小平 (Kodaira),2012-03-06,08:01～09:00,0.0504,0.0428,0.0471,
小平 (Kodaira),2012-03-06,07:01～08:00,0.0522,0.0439,0.0476,
小平 (Kodaira),2012-03-06,06:01～07:00,0.0467,0.0402,0.0440,
小平 (Kodaira),2012-03-06,05:01～06:00,0.0442,0.0378,0.0412,
小平 (Kodaira),2012-03-06,04:01～05:00,0.0447,0.0381,0.0414,
小平 (Kodaira),2012-03-06,03:01～04:00,0.0450,0.0373,0.0423,
小平 (Kodaira),2012-03-06,02:01～03:00,0.0457,0.0387,0.0416,
小平 (Kodaira),2012-03-06,01:01～02:00,0.0442,0.0379,0.0409,
小平 (Kodaira),2012-03-06,00:01～01:00,0.0437,0.0372,0.0405,
小平 (Kodaira),2012-03-05,23:01～24:00,0.0447,0.0392,0.0414,
小平 (Kodaira),2012-03-05,22:01～23:00,0.0442,0.0366,0.0409,
小平 (Kodaira),2012-03-05,21:01～22:00,0.0441,0.0371,0.0414,
小平 (Kodaira),2012-03-05,20:01～21:00,0.0448,0.0379,0.0409,
小平 (Kodaira),2012-03-05,19:01～20:00,0.0439,0.0381,0.0406,
小平 (Kodaira),2012-03-05,18:01～19:00,0.0424,0.0363,0.0393,
小平 (Kodaira),2012-03-05,17:01～18:00,0.0430,0.0372,0.0396,
小平 (Kodaira),2012-03-05,16:01～17:00,0.0456,0.0377,0.0415,
小平 (Kodaira),2012-03-05,15:01～16:00,0.0532,0.0415,0.0463,
小平 (Kodaira),2012-03-05,14:01～15:00,0.0607,0.0482,0.0532,
小平 (Kodaira),2012-03-05,13:01～14:00,0.0582,0.0491,0.0540,
小平 (Kodaira),2012-03-05,12:01～13:00,0.0575,0.0508,0.0542,
小平 (Kodaira),2012-03-05,11:01～12:00,0.0580,0.0513,0.0546,
小平 (Kodaira),2012-03-05,10:01～11:00,0.0588,0.0507,0.0540,
小平 (Kodaira),2012-03-05,09:01～10:00,0.0563,0.0506,0.0537,
小平 (Kodaira),2012-03-05,08:01～09:00,0.0583,0.0499,0.0533,
小平 (Kodaira),2012-03-05,07:01～08:00,0.0567,0.0500,0.0531,
小平 (Kodaira),2012-03-05,06:01～07:00,0.0562,0.0479,0.0517,
小平 (Kodaira),2012-03-05,05:01～06:00,0.0578,0.0494,0.0531,
小平 (Kodaira),2012-03-05,04:01～05:00,0.0553,0.0473,0.0515,
小平 (Kodaira),2012-03-05,03:01～04:00,0.0556,0.0478,0.0518,
小平 (Kodaira),2012-03-05,02:01～03:00,0.0560,0.0485,0.0522,
小平 (Kodaira),2012-03-05,01:01～02:00,0.0545,0.0444,0.0493,
小平 (Kodaira),2012-03-05,00:01～01:00,0.0511,0.0439,0.0480,
